Location: Barnston
(51.8500°N, 0.4000°E)
Time: 19:39:38
(UTC+00:00)

ALOS - Pass Details

Date: 26 September 2023
Orbit: 676 x 679 km, 98.0° (Epoch: 08 December)

Event Time Altitude Azimuth Distance (km) Brightness Sun altitude
Rises 04:42:08 0° 3° (N) 3,055 5.8 -11.3°
Reaches altitude 10° 04:45:02 10° 344° (NNW) 2,135 4.8 -10.8°
Maximum altitude 04:48:02 17° 304° (NW) 1,692 3.9 -10.4°
Enters shadow 04:50:16 13° 272° (W) 1,947 4.0 -10.1°
